| time (UTC) | temp F | wind direction | speed MPH | gust MPH | rain 1hr in | rain 24hr in | rain mn in | humidity % | barometer mb |
| 20260504223733 | 85 | 114 | 0.0 | 1.0 | 0.00 | 0.00 | 0.00 | 44 | 1002.7 |
| 20260504223229 | 85 | 105 | 1.0 | 2.0 | 0.00 | 0.00 | 0.00 | 44 | 1002.6 |
| 20260504222727 | 85 | 117 | 2.0 | 3.0 | 0.00 | 0.00 | 0.00 | 43 | 1002.8 |
| 20260504222223 | 86 | 126 | 1.0 | 1.0 | 0.00 | 0.00 | 0.00 | 43 | 1002.8 |
| 20260504221721 | 86 | 119 | 1.0 | 1.0 | 0.00 | 0.00 | 0.00 | 43 | 1002.7 |
| 20260504221218 | 85 | 148 | 1.0 | 1.0 | 0.00 | 0.00 | 0.00 | 43 | 1002.8 |
| 20260504220714 | 85 | 40 | 1.0 | 1.0 | 0.00 | 0.00 | 0.00 | 43 | 1002.7 |
| 20260504220212 | 86 | 112 | 2.0 | 3.0 | 0.00 | 0.00 | 0.00 | 43 | 1002.9 |
| 20260504215708 | 86 | 110 | 2.0 | 3.0 | 0.00 | 0.00 | 0.00 | 42 | 1002.9 |
| 20260504215206 | 87 | 94 | 3.0 | 5.0 | 0.00 | 0.00 | 0.00 | 41 | 1003.0 |
| 20260504214701 | 87 | 37 | 1.0 | 2.0 | 0.00 | 0.00 | 0.00 | 41 | 1002.9 |
| 20260504214158 | 87 | 116 | 0.0 | 0.0 | 0.00 | 0.00 | 0.00 | 40 | 1003.1 |
| 20260504213655 | 86 | 100 | 2.0 | 3.0 | 0.00 | 0.00 | 0.00 | 41 | 1003.0 |
| 20260504213151 | 87 | 98 | 4.0 | 7.0 | 0.00 | 0.00 | 0.00 | 40 | 1003.1 |
| 20260504212648 | 87 | 131 | 0.0 | 1.0 | 0.00 | 0.00 | 0.00 | 41 | 1003.3 |
| 20260504212144 | 87 | 91 | 2.0 | 2.0 | 0.00 | 0.00 | 0.00 | 40 | 1002.9 |
| 20260504211642 | 87 | 135 | 1.0 | 1.0 | 0.00 | 0.00 | 0.00 | 40 | 1003.1 |
| 20260504211138 | 87 | 138 | 2.0 | 5.0 | 0.00 | 0.00 | 0.00 | 40 | 1003.2 |
| 20260504210636 | 88 | 183 | 4.0 | 6.0 | 0.00 | 0.00 | 0.00 | 35 | 1003.1 |
| 20260504210132 | 88 | 155 | 5.0 | 7.0 | 0.00 | 0.00 | 0.00 | 34 | 1003.3 |
| 20260504205630 | 87 | 160 | 3.0 | 3.0 | 0.00 | 0.00 | 0.00 | 35 | 1003.1 |
| 20260504205127 | 88 | 189 | 4.0 | 6.0 | 0.00 | 0.00 | 0.00 | 34 | 1003.4 |
| 20260504204626 | 89 | 150 | 3.0 | 6.0 | 0.00 | 0.00 | 0.00 | 34 | 1003.6 |
| 20260504204124 | 89 | 118 | 1.0 | 1.0 | 0.00 | 0.00 | 0.00 | 36 | 1003.7 |
| 20260504203622 | 88 | 191 | 3.0 | 5.0 | 0.00 | 0.00 | 0.00 | 35 | 1003.3 |
| 20260504203119 | 89 | 191 | 8.0 | 10.0 | 0.00 | 0.00 | 0.00 | 34 | 1003.6 |
| 20260504202614 | 90 | 151 | 0.0 | 0.0 | 0.00 | 0.00 | 0.00 | 35 | 1003.6 |
| 20260504202111 | 90 | 168 | 0.0 | 0.0 | 0.00 | 0.00 | 0.00 | 35 | 1003.7 |
| 20260504201608 | 89 | 162 | 0.0 | 1.0 | 0.00 | 0.00 | 0.00 | 33 | 1003.5 |
| 20260504201106 | 88 | 239 | 5.0 | 7.0 | 0.00 | 0.00 | 0.00 | 34 | 1003.8 |
| 20260504200603 | 88 | 188 | 1.0 | 2.0 | 0.00 | 0.00 | 0.00 | 35 | 1003.8 |
| 20260504200059 | 88 | 195 | 2.0 | 3.0 | 0.00 | 0.00 | 0.00 | 35 | 1003.9 |
| 20260504195555 | 87 | 147 | 1.0 | 1.0 | 0.00 | 0.00 | 0.00 | 35 | 1003.9 |
| 20260504195051 | 87 | 121 | 0.0 | 1.0 | 0.00 | 0.00 | 0.00 | 37 | 1004.5 |
| 20260504194548 | 88 | 155 | 0.0 | 0.0 | 0.00 | 0.00 | 0.00 | 36 | 1004.2 |
| 20260504194043 | 87 | 221 | 3.0 | 5.0 | 0.00 | 0.00 | 0.00 | 35 | 1004.2 |
| 20260504193540 | 88 | 199 | 1.0 | 2.0 | 0.00 | 0.00 | 0.00 | 36 | 1004.7 |
| 20260504193039 | 88 | 157 | 2.0 | 2.0 | 0.00 | 0.00 | 0.00 | 34 | 1004.3 |
| 20260504192537 | 88 | 134 | 0.0 | 0.0 | 0.00 | 0.00 | 0.00 | 37 | 1004.8 |
| 20260504192035 | 87 | 123 | 2.0 | 2.0 | 0.00 | 0.00 | 0.00 | 37 | 1004.7 |
| 20260504191533 | 87 | 131 | 0.0 | 0.0 | 0.00 | 0.00 | 0.00 | 38 | 1004.8 |
| 20260504191028 | 86 | 146 | 1.0 | 1.0 | 0.00 | 0.00 | 0.00 | 37 | 1004.9 |
| 20260504190525 | 86 | 182 | 3.0 | 3.0 | 0.00 | 0.00 | 0.00 | 36 | 1004.7 |
| 20260504190021 | 86 | 174 | 2.0 | 2.0 | 0.00 | 0.00 | 0.00 | 37 | 1004.7 |
| 20260504185518 | 85 | 167 | 2.0 | 2.0 | 0.00 | 0.00 | 0.00 | 38 | 1005.2 |
| 20260504185015 | 86 | 96 | 3.0 | 3.0 | 0.00 | 0.00 | 0.00 | 37 | 1005.1 |
| 20260504184510 | 86 | 270 | 2.0 | 2.0 | 0.00 | 0.00 | 0.00 | 37 | 1004.9 |
| 20260504184006 | 85 | 216 | 2.0 | 2.0 | 0.00 | 0.00 | 0.00 | 39 | 1005.0 |
| 20260504183503 | 85 | 165 | 0.0 | 0.0 | 0.00 | 0.00 | 0.00 | 38 | 1005.3 |
| 20260504183001 | 85 | 272 | 4.0 | 5.0 | 0.00 | 0.00 | 0.00 | 39 | 1005.0 |
| 20260504182458 | 85 | 136 | 0.0 | 0.0 | 0.00 | 0.00 | 0.00 | 39 | 1005.3 |
| 20260504181955 | 84 | 139 | 0.0 | 0.0 | 0.00 | 0.00 | 0.00 | 40 | 1005.4 |
| 20260504181452 | 82 | 123 | 2.0 | 5.0 | 0.00 | 0.00 | 0.00 | 40 | 1005.5 |
| 20260504180951 | 82 | 8 | 3.0 | 5.0 | 0.00 | 0.00 | 0.00 | 40 | 1005.4 |
| 20260504180449 | 81 | 267 | 2.0 | 3.0 | 0.00 | 0.00 | 0.00 | 41 | 1005.5 |
| 20260504175947 | 81 | 273 | 1.0 | 2.0 | 0.00 | 0.00 | 0.00 | 42 | 1005.7 |
| 20260504175444 | 81 | 180 | 0.0 | 0.0 | 0.00 | 0.00 | 0.00 | 42 | 1005.5 |
| 20260504174941 | 81 | 110 | 0.0 | 0.0 | 0.00 | 0.00 | 0.00 | 44 | 1005.5 |
| 20260504174439 | 81 | 128 | 1.0 | 1.0 | 0.00 | 0.00 | 0.00 | 42 | 1005.6 |
| 20260504173936 | 80 | 150 | 0.0 | 0.0 | 0.00 | 0.00 | 0.00 | 44 | 1005.8 |
| 20260504173432 | 80 | 141 | 4.0 | 6.0 | 0.00 | 0.00 | 0.00 | 44 | 1005.6 |
| 20260504172930 | 79 | 157 | 1.0 | 2.0 | 0.00 | 0.00 | 0.00 | 45 | 1005.6 |
| 20260504172426 | 79 | 279 | 1.0 | 2.0 | 0.00 | 0.00 | 0.00 | 43 | 1006.0 |
| 20260504171923 | 81 | 208 | 3.0 | 3.0 | 0.00 | 0.00 | 0.00 | 44 | 1005.7 |
| 20260504171420 | 80 | 187 | 4.0 | 7.0 | 0.00 | 0.00 | 0.00 | 42 | 1005.8 |
| 20260504170917 | 80 | 259 | 3.0 | 3.0 | 0.00 | 0.00 | 0.00 | 44 | 1005.6 |
| 20260504170413 | 78 | 235 | 1.0 | 5.0 | 0.00 | 0.00 | 0.00 | 45 | 1005.5 |
| 20260504160332 | 74 | 137 | 4.0 | 6.0 | 0.00 | 0.00 | 0.00 | 50 | 1005.7 |
| 20260504150756 | 71 | 160 | 3.0 | 5.0 | 0.00 | 0.00 | 0.00 | 54 | 1005.8 |
| 20260504150253 | 71 | 339 | 4.0 | 7.0 | 0.00 | 0.00 | 0.00 | 54 | 1006.0 |
| 20260504141223 | 67 | 263 | 2.0 | 2.0 | 0.00 | 0.00 | 0.00 | 58 | 1006.3 |
| 20260504140720 | 67 | 243 | 5.0 | 6.0 | 0.00 | 0.00 | 0.00 | 58 | 1006.2 |
| 20260504140215 | 67 | 156 | 4.0 | 5.0 | 0.00 | 0.00 | 0.00 | 57 | 1006.0 |
| 20260504130644 | 61 | 119 | 1.0 | 1.0 | 0.00 | 0.00 | 0.00 | 65 | 1006.2 |
| 20260504130140 | 61 | 210 | 3.0 | 3.0 | 0.00 | 0.00 | 0.00 | 65 | 1006.2 |
| 20260504120104 | 60 | 218 | 2.0 | 2.0 | 0.00 | 0.00 | 0.00 | 65 | 1006.0 |
| 20260504110532 | 61 | 203 | 1.0 | 1.0 | 0.00 | 0.00 | 0.00 | 61 | 1006.3 |
| 20260504100448 | 63 | 141 | 2.0 | 2.0 | 0.00 | 0.00 | 0.00 | 57 | 1006.7 |
| 20260504081841 | 65 | 113 | 4.0 | 6.0 | 0.00 | 0.00 | 0.00 | 53 | 1007.6 |
| 20260504081338 | 65 | 204 | 4.0 | 7.0 | 0.00 | 0.00 | 0.00 | 53 | 1007.3 |
| 20260504080833 | 65 | 155 | 3.0 | 6.0 | 0.00 | 0.00 | 0.00 | 52 | 1007.5 |
| 20260504080331 | 65 | 169 | 2.0 | 5.0 | 0.00 | 0.00 | 0.00 | 52 | 1007.7 |
| 20260504070258 | 67 | 183 | 2.0 | 2.0 | 0.00 | 0.00 | 0.00 | 50 | 1008.4 |
| 20260504060219 | 69 | 183 | 4.0 | 7.0 | 0.00 | 0.00 | 0.00 | 47 | 1008.8 |
| 20260504050646 | 70 | 214 | 6.0 | 7.0 | 0.00 | 0.00 | 0.00 | 45 | 1008.9 |
| 20260504050143 | 70 | 276 | 7.0 | 13.0 | 0.00 | 0.00 | 0.00 | 45 | 1009.0 |
| 20260504045641 | 70 | 185 | 7.0 | 13.0 | 0.00 | 0.00 | 0.00 | 45 | 1008.9 |
| 20260504045140 | 70 | 217 | 4.0 | 6.0 | 0.00 | 0.00 | 0.00 | 44 | 1008.7 |
| 20260504044638 | 70 | 214 | 4.0 | 6.0 | 0.00 | 0.00 | 0.00 | 44 | 1008.9 |
| 20260504044135 | 70 | 158 | 5.0 | 7.0 | 0.00 | 0.00 | 0.00 | 44 | 1008.7 |
| 20260504043632 | 70 | 86 | 5.0 | 8.0 | 0.00 | 0.00 | 0.00 | 43 | 1008.7 |
| 20260504043129 | 70 | 96 | 5.0 | 7.0 | 0.00 | 0.00 | 0.00 | 43 | 1008.8 |
| 20260504042626 | 71 | 186 | 4.0 | 7.0 | 0.00 | 0.00 | 0.00 | 42 | 1008.7 |
| 20260504042123 | 71 | 172 | 4.0 | 6.0 | 0.00 | 0.00 | 0.00 | 42 | 1008.9 |
| 20260504041619 | 70 | 201 | 5.0 | 10.0 | 0.00 | 0.00 | 0.00 | 42 | 1009.1 |
| 20260504041115 | 70 | 157 | 4.0 | 8.0 | 0.00 | 0.00 | 0.00 | 41 | 1009.0 |
| 20260504040613 | 70 | 162 | 3.0 | 5.0 | 0.00 | 0.00 | 0.00 | 41 | 1009.0 |
| 20260504040109 | 70 | 197 | 3.0 | 5.0 | 0.00 | 0.00 | 0.00 | 41 | 1009.2 |
| 20260504035606 | 70 | 83 | 3.0 | 5.0 | 0.00 | 0.00 | 0.00 | 41 | 1009.0 |
| 20260504035102 | 70 | 203 | 2.0 | 2.0 | 0.00 | 0.00 | 0.00 | 41 | 1008.9 |
| 20260504034600 | 69 | 202 | 2.0 | 2.0 | 0.00 | 0.00 | 0.00 | 41 | 1009.1 |
| 20260504034057 | 69 | 197 | 3.0 | 3.0 | 0.00 | 0.00 | 0.00 | 41 | 1009.0 |
| 20260504033555 | 70 | 217 | 3.0 | 5.0 | 0.00 | 0.00 | 0.00 | 41 | 1009.0 |
| 20260504033052 | 70 | 151 | 2.0 | 2.0 | 0.00 | 0.00 | 0.00 | 40 | 1009.1 |
| 20260504032549 | 69 | 162 | 2.0 | 3.0 | 0.00 | 0.00 | 0.00 | 40 | 1009.0 |
| 20260504032046 | 69 | 132 | 3.0 | 3.0 | 0.00 | 0.00 | 0.00 | 41 | 1009.1 |
| 20260504031543 | 69 | 107 | 1.0 | 1.0 | 0.00 | 0.00 | 0.00 | 40 | 1009.0 |
| 20260504031039 | 69 | 117 | 1.0 | 2.0 | 0.00 | 0.00 | 0.00 | 40 | 1009.2 |
| 20260504030536 | 69 | 126 | 0.0 | 0.0 | 0.00 | 0.00 | 0.00 | 41 | 1009.2 |
| 20260504030032 | 70 | 158 | 1.0 | 1.0 | 0.00 | 0.00 | 0.00 | 40 | 1009.0 |
| 20260504025530 | 70 | 199 | 0.0 | 1.0 | 0.00 | 0.00 | 0.00 | 39 | 1008.9 |
| 20260504025026 | 70 | 112 | 0.0 | 0.0 | 0.00 | 0.00 | 0.00 | 39 | 1008.9 |
| 20260504024523 | 71 | 164 | 2.0 | 3.0 | 0.00 | 0.00 | 0.00 | 38 | 1008.9 |
| 20260504024020 | 71 | 119 | 0.0 | 0.0 | 0.00 | 0.00 | 0.00 | 38 | 1009.1 |
| 20260504023517 | 72 | 105 | 0.0 | 1.0 | 0.00 | 0.00 | 0.00 | 38 | 1009.0 |
| 20260504023013 | 72 | 181 | 2.0 | 3.0 | 0.00 | 0.00 | 0.00 | 37 | 1008.9 |
| 20260504022509 | 72 | 177 | 2.0 | 3.0 | 0.00 | 0.00 | 0.00 | 36 | 1009.0 |
| 20260504022006 | 72 | 157 | 1.0 | 2.0 | 0.00 | 0.00 | 0.00 | 37 | 1009.1 |
| 20260504021503 | 72 | 133 | 0.0 | 1.0 | 0.00 | 0.00 | 0.00 | 37 | 1008.9 |
| 20260504021000 | 72 | 130 | 0.0 | 0.0 | 0.00 | 0.00 | 0.00 | 37 | 1008.9 |
| 20260504020456 | 72 | 232 | 0.0 | 2.0 | 0.00 | 0.00 | 0.00 | 38 | 1008.9 |
| 20260504015953 | 72 | 130 | 0.0 | 0.0 | 0.00 | 0.00 | 0.00 | 37 | 1008.9 |
| 20260504015449 | 72 | 141 | 0.0 | 0.0 | 0.00 | 0.00 | 0.00 | 37 | 1009.1 |
| 20260504014945 | 72 | 133 | 0.0 | 0.0 | 0.00 | 0.00 | 0.00 | 37 | 1009.0 |
| 20260504014441 | 72 | 130 | 0.0 | 0.0 | 0.00 | 0.00 | 0.00 | 37 | 1009.0 |
| 20260504013938 | 73 | 137 | 0.0 | 0.0 | 0.00 | 0.00 | 0.00 | 37 | 1008.9 |
| 20260504013437 | 73 | 209 | 1.0 | 2.0 | 0.00 | 0.00 | 0.00 | 36 | 1008.8 |
| 20260504012933 | 74 | 133 | 0.0 | 0.0 | 0.00 | 0.00 | 0.00 | 36 | 1008.9 |
| 20260504012431 | 74 | 162 | 0.0 | 1.0 | 0.00 | 0.00 | 0.00 | 35 | 1009.0 |
| 20260504011928 | 75 | 146 | 0.0 | 1.0 | 0.00 | 0.00 | 0.00 | 35 | 1009.0 |
| 20260504011425 | 76 | 191 | 1.0 | 2.0 | 0.00 | 0.00 | 0.00 | 34 | 1008.9 |
| 20260504010920 | 76 | 141 | 1.0 | 2.0 | 0.00 | 0.00 | 0.00 | 33 | 1009.1 |
| 20260504010417 | 77 | 339 | 0.0 | 0.0 | 0.00 | 0.00 | 0.00 | 33 | 1008.9 |
| 20260504005913 | 77 | 148 | 0.0 | 1.0 | 0.00 | 0.00 | 0.00 | 32 | 1009.0 |
| 20260504005410 | 78 | 138 | 1.0 | 1.0 | 0.00 | 0.00 | 0.00 | 31 | 1009.1 |
| 20260504004908 | 78 | 161 | 3.0 | 5.0 | 0.00 | 0.00 | 0.00 | 30 | 1009.0 |
| 20260504004405 | 79 | 135 | 3.0 | 3.0 | 0.00 | 0.00 | 0.00 | 29 | 1009.2 |
| 20260504003902 | 79 | 163 | 1.0 | 2.0 | 0.00 | 0.00 | 0.00 | 29 | 1009.1 |
| 20260504003358 | 80 | 153 | 1.0 | 1.0 | 0.00 | 0.00 | 0.00 | 28 | 1009.2 |
| 20260504002855 | 80 | 0 | 1.0 | 2.0 | 0.00 | 0.00 | 0.00 | 28 | 1009.3 |
| 20260504002352 | 81 | 221 | 3.0 | 5.0 | 0.00 | 0.00 | 0.00 | 27 | 1009.3 |
| 20260504001849 | 81 | 157 | 3.0 | 3.0 | 0.00 | 0.00 | 0.00 | 27 | 1009.5 |
| 20260504001347 | 81 | 179 | 5.0 | 9.0 | 0.00 | 0.00 | 0.00 | 27 | 1009.6 |
| 20260504000843 | 81 | 139 | 1.0 | 2.0 | 0.00 | 0.00 | 0.00 | 27 | 1009.9 |
| 20260504000340 | 82 | 185 | 4.0 | 5.0 | 0.00 | 0.00 | 0.00 | 26 | 1009.7 |
| 20260503235838 | 82 | 197 | 3.0 | 3.0 | 0.00 | 0.00 | 0.00 | 26 | 1009.8 |
| 20260503235335 | 82 | 101 | 3.0 | 5.0 | 0.00 | 0.00 | 0.00 | 26 | 1009.8 |
| 20260503234833 | 82 | 199 | 5.0 | 6.0 | 0.00 | 0.00 | 0.00 | 26 | 1009.9 |
| 20260503234330 | 83 | 183 | 3.0 | 6.0 | 0.00 | 0.00 | 0.00 | 25 | 1009.8 |
| 20260503233828 | 83 | 167 | 4.0 | 7.0 | 0.00 | 0.00 | 0.00 | 25 | 1009.7 |
| 20260503233323 | 83 | 113 | 4.0 | 6.0 | 0.00 | 0.00 | 0.00 | 25 | 1009.7 |
| 20260503232820 | 83 | 174 | 5.0 | 7.0 | 0.00 | 0.00 | 0.00 | 24 | 1010.0 |
| 20260503232318 | 83 | 171 | 6.0 | 7.0 | 0.00 | 0.00 | 0.00 | 24 | 1010.0 |
| 20260503231816 | 84 | 270 | 5.0 | 6.0 | 0.00 | 0.00 | 0.00 | 24 | 1010.1 |
| 20260503231312 | 84 | 235 | 5.0 | 7.0 | 0.00 | 0.00 | 0.00 | 23 | 1009.8 |
| 20260503230808 | 84 | 114 | 3.0 | 5.0 | 0.00 | 0.00 | 0.00 | 23 | 1009.9 |
| 20260503230306 | 86 | 168 | 4.0 | 5.0 | 0.00 | 0.00 | 0.00 | 24 | 1010.1 |
| 20260503225803 | 85 | 180 | 7.0 | 9.0 | 0.00 | 0.00 | 0.00 | 23 | 1010.0 |
| 20260503225258 | 86 | 172 | 3.0 | 5.0 | 0.00 | 0.00 | 0.00 | 24 | 1010.1 |
| 20260503224755 | 86 | 196 | 7.0 | 9.0 | 0.00 | 0.00 | 0.00 | 23 | 1010.1 |
| 20260503224253 | 86 | 193 | 6.0 | 8.0 | 0.00 | 0.00 | 0.00 | 23 | 1010.0 |